Time,TemperatureF,DewpointF,PressureIn,WindDirection,WindDirectionDegrees,WindSpeedMPH,WindSpeedGustMPH,Humidity,HourlyPrecipIn,Conditions,Clouds,dailyrainin,SoftwareType,DateUTC
2013-04-19 12:03:00,38.0,30.0,29.64,West,271,14.0,32.0,73,-99.99,,,-99.99,,2013-04-19 16:03:00,
2013-04-19 12:13:00,38.0,30.0,29.64,West,271,14.0,32.0,73,-99.99,,,-99.99,,2013-04-19 16:13:00,
2013-04-19 12:23:00,37.0,29.0,29.65,SW,233,12.0,33.0,72,-99.99,,,-99.99,,2013-04-19 16:23:00,
2013-04-19 12:32:00,38.0,29.0,29.65,SW,230,16.0,25.0,70,-99.99,,,-99.99,,2013-04-19 16:32:00,
2013-04-19 12:42:00,38.0,29.0,29.65,SW,230,16.0,25.0,70,-99.99,,,-99.99,,2013-04-19 16:42:00,
2013-04-19 12:53:00,38.0,28.0,29.64,SSW,192,13.0,33.0,66,-99.99,,,-99.99,,2013-04-19 16:53:00,
2013-04-19 13:02:00,38.0,28.0,29.64,SW,214,10.0,26.0,67,-99.99,,,-99.99,,2013-04-19 17:02:00,
2013-04-19 13:12:00,38.0,28.0,29.64,SW,214,10.0,26.0,67,-99.99,,,-99.99,,2013-04-19 17:12:00,
2013-04-19 13:22:00,38.0,28.0,29.65,SW,217,13.0,23.0,67,-99.99,,,-99.99,,2013-04-19 17:22:00,
2013-04-19 13:33:00,39.0,29.0,29.64,WSW,252,10.0,24.0,66,-99.99,,,-99.99,,2013-04-19 17:33:00,
2013-04-19 13:43:00,39.0,29.0,29.64,WSW,252,10.0,24.0,66,-99.99,,,-99.99,,2013-04-19 17:43:00,
2013-04-19 13:52:00,38.0,28.0,29.65,SW,234,10.0,26.0,68,-99.99,,,-99.99,,2013-04-19 17:52:00,
2013-04-19 14:02:00,39.0,28.0,29.66,SSW,198,15.0,28.0,65,-99.99,,,-99.99,,2013-04-19 18:02:00,
2013-04-19 14:13:00,39.0,28.0,29.66,SSW,198,15.0,28.0,65,-99.99,,,-99.99,,2013-04-19 18:13:00,
2013-04-19 14:23:00,38.0,28.0,29.66,SW,227,16.0,32.0,68,-99.99,,,-99.99,,2013-04-19 18:23:00,
2013-04-19 14:33:00,39.0,29.0,29.66,West,269,14.0,28.0,67,-99.99,,,-99.99,,2013-04-19 18:33:00,
2013-04-19 14:43:00,39.0,29.0,29.66,West,269,14.0,28.0,67,-99.99,,,-99.99,,2013-04-19 18:43:00,
2013-04-19 14:52:00,39.0,29.0,29.67,SW,224,11.0,28.0,66,-99.99,,,-99.99,,2013-04-19 18:52:00,
2013-04-19 15:02:00,39.0,29.0,29.68,SW,236,21.0,30.0,66,-99.99,,,-99.99,,2013-04-19 19:02:00,
2013-04-19 15:11:00,39.0,29.0,29.68,SW,236,21.0,30.0,66,-99.99,,,-99.99,,2013-04-19 19:11:00,
2013-04-19 15:21:00,38.0,29.0,29.70,WNW,296,11.0,32.0,71,-99.99,,,-99.99,,2013-04-19 19:21:00,
2013-04-19 15:32:00,38.0,29.0,29.70,South,182,13.0,29.0,70,-99.99,,,-99.99,,2013-04-19 19:32:00,
2013-04-19 15:42:00,38.0,29.0,29.70,South,182,13.0,29.0,70,-99.99,,,-99.99,,2013-04-19 19:42:00,
2013-04-19 15:52:00,39.0,30.0,29.70,SSW,192,10.0,25.0,69,-99.99,,,-99.99,,2013-04-19 19:52:00,
2013-04-19 16:02:00,38.0,31.0,29.70,NW,321,10.0,26.0,75,-99.99,,,-99.99,,2013-04-19 20:02:00,
2013-04-19 16:11:00,38.0,31.0,29.70,NW,321,10.0,26.0,75,-99.99,,,-99.99,,2013-04-19 20:11:00,
2013-04-19 16:22:00,38.0,30.0,29.71,West,271,14.0,27.0,73,-99.99,,,-99.99,,2013-04-19 20:22:00,
2013-04-19 16:32:00,38.0,29.0,29.71,West,264,9.0,25.0,69,-99.99,,,-99.99,,2013-04-19 20:32:00,
2013-04-19 16:42:00,38.0,29.0,29.71,West,264,9.0,25.0,69,-99.99,,,-99.99,,2013-04-19 20:42:00,
2013-04-19 16:52:00,38.0,29.0,29.71,SSW,198,12.0,25.0,71,-99.99,,,-99.99,,2013-04-19 20:52:00,
2013-04-19 17:01:00,38.0,29.0,29.72,SW,224,11.0,30.0,70,-99.99,,,-99.99,,2013-04-19 21:01:00,
2013-04-19 17:11:00,38.0,29.0,29.72,WSW,237,12.0,28.0,70,-99.99,,,-99.99,,2013-04-19 21:11:00,
2013-04-19 17:21:00,38.0,29.0,29.72,WSW,237,12.0,28.0,70,-99.99,,,-99.99,,2013-04-19 21:21:00,
2013-04-19 17:32:00,38.0,29.0,29.72,SW,217,10.0,26.0,70,-99.99,,,-99.99,,2013-04-19 21:32:00,
2013-04-19 17:43:00,38.0,29.0,29.72,SW,217,10.0,26.0,70,-99.99,,,-99.99,,2013-04-19 21:43:00,
2013-04-19 17:53:00,38.0,30.0,29.73,SW,218,11.0,22.0,72,-99.99,,,-99.99,,2013-04-19 21:53:00,
2013-04-19 18:02:00,38.0,30.0,29.73,SSW,198,11.0,23.0,74,-99.99,,,-99.99,,2013-04-19 22:02:00,
2013-04-19 18:12:00,38.0,30.0,29.73,SSW,198,11.0,23.0,74,-99.99,,,-99.99,,2013-04-19 22:12:00,
2013-04-19 18:23:00,37.0,31.0,29.74,SW,230,12.0,23.0,80,-99.99,,,-99.99,,2013-04-19 22:23:00,
2013-04-19 18:33:00,37.0,31.0,29.75,SW,217,13.0,26.0,79,-99.99,,,-99.99,,2013-04-19 22:33:00,
2013-04-19 18:42:00,37.0,31.0,29.75,SW,217,13.0,26.0,79,-99.99,,,-99.99,,2013-04-19 22:42:00,
2013-04-19 18:52:00,38.0,31.0,29.76,SSW,199,14.0,25.0,76,-99.99,,,-99.99,,2013-04-19 22:52:00,
2013-04-19 19:03:00,38.0,31.0,29.77,SW,220,7.0,22.0,77,-99.99,,,-99.99,,2013-04-19 23:03:00,
2013-04-19 19:11:00,38.0,31.0,29.77,SW,220,7.0,22.0,77,-99.99,,,-99.99,,2013-04-19 23:11:00,
2013-04-19 19:22:00,37.0,31.0,29.77,WNW,300,14.0,22.0,79,-99.99,,,-99.99,,2013-04-19 23:22:00,
2013-04-19 19:32:00,38.0,30.0,29.78,SW,227,10.0,16.0,73,-99.99,,,-99.99,,2013-04-19 23:32:00,
2013-04-19 19:42:00,38.0,30.0,29.78,SW,227,10.0,16.0,73,-99.99,,,-99.99,,2013-04-19 23:42:00,
2013-04-19 19:53:00,38.0,30.0,29.78,West,276,10.0,15.0,72,-99.99,,,-99.99,,2013-04-19 23:53:00,
2013-04-19 20:02:00,37.0,29.0,29.79,SW,229,13.0,23.0,74,-99.99,,,-99.99,,2013-04-20 00:02:00,
2013-04-19 20:12:00,37.0,29.0,29.79,SW,229,13.0,23.0,74,-99.99,,,-99.99,,2013-04-20 00:12:00,
2013-04-19 20:22:00,37.0,30.0,29.80,SSW,202,9.0,21.0,75,-99.99,,,-99.99,,2013-04-20 00:22:00,
2013-04-19 20:32:00,37.0,29.0,29.80,SW,236,12.0,23.0,72,-99.99,,,-99.99,,2013-04-20 00:32:00,
2013-04-19 20:42:00,37.0,29.0,29.80,SW,236,12.0,23.0,72,-99.99,,,-99.99,,2013-04-20 00:42:00,
2013-04-19 20:52:00,37.0,29.0,29.81,WSW,252,11.0,22.0,72,-99.99,,,-99.99,,2013-04-20 00:52:00,
2013-04-19 21:01:00,37.0,31.0,29.82,WSW,252,14.0,23.0,79,-99.99,,,-99.99,,2013-04-20 01:01:00,
2013-04-19 21:11:00,37.0,31.0,29.82,WSW,252,14.0,23.0,79,-99.99,,,-99.99,,2013-04-20 01:11:00,
2013-04-19 21:21:00,36.0,31.0,29.83,SSW,199,6.0,22.0,81,-99.99,,,-99.99,,2013-04-20 01:21:00,
2013-04-19 21:32:00,36.0,30.0,29.83,NNW,337,10.0,20.0,79,-99.99,,,-99.99,,2013-04-20 01:32:00,
2013-04-19 21:42:00,36.0,30.0,29.83,NNW,337,10.0,20.0,79,-99.99,,,-99.99,,2013-04-20 01:42:00,
2013-04-19 21:52:00,37.0,31.0,29.83,West,271,7.0,20.0,78,-99.99,,,-99.99,,2013-04-20 01:52:00,
2013-04-19 22:02:00,37.0,31.0,29.84,SW,231,9.0,19.0,78,-99.99,,,-99.99,,2013-04-20 02:02:00,
2013-04-19 22:11:00,37.0,31.0,29.84,SW,231,9.0,19.0,78,-99.99,,,-99.99,,2013-04-20 02:11:00,
2013-04-19 22:21:00,37.0,31.0,29.85,SW,231,6.0,19.0,78,-99.99,,,-99.99,,2013-04-20 02:21:00,
2013-04-19 22:32:00,37.0,30.0,29.85,WSW,244,14.0,21.0,77,-99.99,,,-99.99,,2013-04-20 02:32:00,
2013-04-19 22:42:00,37.0,30.0,29.85,WSW,244,14.0,21.0,77,-99.99,,,-99.99,,2013-04-20 02:42:00,
2013-04-19 22:52:00,37.0,30.0,29.85,SW,234,9.0,14.0,75,-99.99,,,-99.99,,2013-04-20 02:52:00,